Notices

What's New in latest Release from April 7th, 2021:

- Updated Glossary, including Speed of Maximum Gust, and Total Hourly Precipitation

- Updated national and regional climate services offices contacts and prices information

- Addition of station inventory lists for 1981-2010, 1971-2000, and 1961-1990 Normals.

If you haven't already, please take our survey and provide feedback about our website: https://eccc.sondage-survey.ca/f/LanguageSelection.aspx?s=442ca660-fcf1-47c0-95a9-59707d6fd709

Hourly Data Report for October 26, 2003

TORONTO CITY
ONTARIO

43°40'00.000" N
79°24'00.000" W
112.50 m
6158355
71508
XTO

Download Data

Hourly Data (October 2003)
Hourly Data Report for October 26, 2003
TIME
LST
Temp Definition
°C
Dew Point Definition
°C
Rel Hum Definition
%
Precip. Amount Definition
mm

Wind Dir Definition
10's deg

Wind Spd Definition
km/h
Visibility Definition
km
Stn Press Definition
kPa
Hmdx Definition


Wind Chill Definition


Weather Definition


00:00 8.7 7.5 92   LegendMM LegendMM LegendMM 100.67     LegendNANA
01:00 8.8 8.0 95   LegendMM LegendMM LegendMM 100.61     LegendNANA
02:00 8.9 8.3 96   LegendMM LegendMM LegendMM 100.57     LegendNANA
03:00 8.8 8.3 97   LegendMM LegendMM LegendMM 100.46     LegendNANA
04:00 8.6 8.2 97   LegendMM LegendMM LegendMM 100.41     LegendNANA
05:00 8.8 8.4 97   LegendMM LegendMM LegendMM 100.33     LegendNANA
06:00 8.8 8.4 97   LegendMM LegendMM LegendMM 100.29     LegendNANA
07:00 8.7 8.3 97   LegendMM LegendMM LegendMM 100.23     LegendNANA
08:00 8.7 8.3 97   LegendMM LegendMM LegendMM 100.20     LegendNANA
09:00 8.9 8.5 97   LegendMM LegendMM LegendMM 100.20     LegendNANA
10:00 9.1 8.7 97   LegendMM LegendMM LegendMM 100.18     LegendNANA
11:00 9.2 8.5 95   LegendMM LegendMM LegendMM 100.13     LegendNANA
12:00 9.4 8.6 95   LegendMM LegendMM LegendMM 100.11     LegendNANA
13:00 9.6 8.5 93   LegendMM LegendMM LegendMM 100.07     LegendNANA
14:00 9.7 8.4 92   LegendMM LegendMM LegendMM 100.06     LegendNANA
15:00 9.5 8.4 93   LegendMM LegendMM LegendMM 100.11     LegendNANA
16:00 9.6 8.2 91   LegendMM LegendMM LegendMM 100.08     LegendNANA
17:00 9.5 7.8 89   LegendMM LegendMM LegendMM 100.12     LegendNANA
18:00 8.3 7.1 92   LegendMM LegendMM LegendMM 100.12     LegendNANA
19:00 8.2 7.5 95   LegendMM LegendMM LegendMM 100.14     LegendNANA
20:00 7.9 7.4 97   LegendMM LegendMM LegendMM 100.13     LegendNANA
21:00 8.0 7.5 97   LegendMM LegendMM LegendMM 100.12     LegendNANA
22:00 7.8 7.2 96   LegendMM LegendMM LegendMM 100.10     LegendNANA
23:00 7.6 7.0 96   LegendMM LegendMM LegendMM 100.05     LegendNANA

Notes on Data Quality.

Legend

  • E = Estimated
  • M = Missing
  • NA = Not Available*
  • [empty] = Indicates an unobserved value
Date modified: